カタログに戻る

FENGYUN 1C DEB

運用中SSO
NORAD 31247·DEBRIS·🇨🇳 China

打ち上げ May 10, 1999 から Taiyuan Satellite Launch Center

Loading…

次のパス (今後24時間)

TLE

最新Source: Space-Track

元期: Sep 14, 2026, 10:44 UTC

1 31247U 99025BMD 26257.44761624  .00000503  00000-0  33210-3 0  9998
2 31247  99.3414 159.3429 0060456  25.8462  30.5749 14.05672051993943

AllMySatでFENGYUN 1C DEBをリアルタイム追跡

Download on the App Store